TimeBST,TemperatureF,Dew PointF,Humidity,Sea Level PressureIn,VisibilityMPH,Wind Direction,Wind SpeedMPH,Gust SpeedMPH,PrecipitationIn,Events,Conditions,WindDirDegrees,DateUTC
12:50 AM,56,55,96,30.07,6,SSW,10.4,,,,Mist,210,2013-06-30 23:50:00
3:50 AM,53,53,99,30.05,4,SW,8.1,,,,Mist,230,2013-07-01 02:50:00
5:50 AM,53.6,51.8,94,30.04,6.2,SW,5.8,-,N/A,,Partly Cloudy,230,2013-07-01 04:50:00
6:20 AM,55.4,51.8,88,30.04,6.2,SW,6.9,-,N/A,,Partly Cloudy,230,2013-07-01 05:20:00
6:50 AM,57,54,88,30.06,25,SW,9.2,,,,,230,2013-07-01 05:50:00
6:50 AM,57.2,53.6,88,30.04,6.2,WSW,8.1,-,N/A,,Mostly Cloudy,240,2013-07-01 05:50:00
7:20 AM,57.2,53.6,88,30.04,6.2,WSW,10.4,-,N/A,,Mostly Cloudy,240,2013-07-01 06:20:00
7:50 AM,59.0,53.6,82,30.06,6.2,WSW,9.2,-,N/A,,Scattered Clouds,240,2013-07-01 06:50:00
8:20 AM,59.0,51.8,77,30.06,6.2,WSW,10.4,-,N/A,,Partly Cloudy,250,2013-07-01 07:20:00
8:50 AM,60.8,51.8,72,30.06,6.2,WSW,12.7,-,N/A,,Partly Cloudy,250,2013-07-01 07:50:00
9:20 AM,60.8,51.8,72,30.04,6.2,WSW,10.4,-,N/A,,Scattered Clouds,240,2013-07-01 08:20:00
9:50 AM,63,52,58,30.05,22,West,9.2,,,,Partly Cloudy,260,2013-07-01 08:50:00
9:50 AM,62.6,50.0,63,30.04,6.2,WSW,9.2,-,N/A,,Scattered Clouds,240,2013-07-01 08:50:00
10:20 AM,64.4,50.0,59,30.04,6.2,WSW,10.4,-,N/A,,Scattered Clouds,240,2013-07-01 09:20:00
10:50 AM,64.4,50.0,59,30.04,6.2,WSW,10.4,-,N/A,,Scattered Clouds,250,2013-07-01 09:50:00
11:20 AM,66.2,51.8,60,30.04,6.2,SW,9.2,-,N/A,,Scattered Clouds,230,2013-07-01 10:20:00
11:50 AM,66.2,48.2,52,30.04,6.2,WSW,11.5,-,N/A,,Scattered Clouds,250,2013-07-01 10:50:00
12:20 PM,66.2,50.0,56,30.04,6.2,SW,10.4,-,N/A,,Scattered Clouds,230,2013-07-01 11:20:00
12:50 PM,67,51,45,30.02,22,West,10.4,,,,Partly Cloudy,260,2013-07-01 11:50:00
12:50 PM,68.0,50.0,52,30.01,6.2,WSW,10.4,-,N/A,,Scattered Clouds,250,2013-07-01 11:50:00
1:20 PM,68.0,50.0,52,30.01,6.2,WSW,9.2,-,N/A,,Scattered Clouds,250,2013-07-01 12:20:00
1:50 PM,68.0,50.0,52,30.01,6.2,West,9.2,-,N/A,,Scattered Clouds,260,2013-07-01 12:50:00
2:20 PM,69.8,50.0,49,30.01,6.2,West,9.2,-,N/A,,Scattered Clouds,260,2013-07-01 13:20:00
2:50 PM,66.2,51.8,60,30.01,6.2,Variable,10.4,-,N/A,,Scattered Clouds,0,2013-07-01 13:50:00
3:20 PM,64.4,51.8,64,30.01,6.2,NNE,8.1,-,N/A,,Partly Cloudy,20,2013-07-01 14:20:00
3:50 PM,64,54,62,30.01,12,NNE,5.8,,,,Mostly Cloudy,30,2013-07-01 14:50:00
3:50 PM,64.4,53.6,68,30.01,6.2,Variable,4.6,-,N/A,,Scattered Clouds,0,2013-07-01 14:50:00
4:20 PM,64.4,55.4,73,30.01,6.2,SW,9.2,-,N/A,,Scattered Clouds,220,2013-07-01 15:20:00
4:50 PM,64.4,55.4,73,30.01,6.2,SW,10.4,-,N/A,,Partly Cloudy,230,2013-07-01 15:50:00
5:20 PM,66.2,55.4,68,30.01,6.2,SSW,9.2,-,N/A,,Partly Cloudy,210,2013-07-01 16:20:00
5:50 PM,66.2,55.4,68,30.01,6.2,SSW,10.4,-,N/A,,Scattered Clouds,210,2013-07-01 16:50:00
6:20 PM,64.4,55.4,73,30.01,6.2,SSW,6.9,-,N/A,,Scattered Clouds,210,2013-07-01 17:20:00
6:50 PM,64.4,55.4,73,30.01,6.2,SW,5.8,-,N/A,,Scattered Clouds,230,2013-07-01 17:50:00
7:20 PM,64.4,55.4,73,30.01,6.2,South,2.3,-,N/A,,Mostly Cloudy,170,2013-07-01 18:20:00
7:50 PM,64.4,53.6,68,29.98,6.2,NNW,8.1,-,N/A,,Mostly Cloudy,330,2013-07-01 18:50:00
8:20 PM,62.6,51.8,68,30.01,6.2,North,8.1,-,N/A,,Mostly Cloudy,350,2013-07-01 19:20:00
9:50 PM,60,51,64,30.01,16,ENE,4.6,,,,Mostly Cloudy,60,2013-07-01 20:50:00